FDX303 KMEM-KMIA

Flight info

Callsign FDX303
Flight time N/A
Altitude 39000
Route KERMI MGMRY ACORI
Aircraft MD11/H-SDFGHIRWXYZ/LB1D1

Departure

Time 2026-05-05 11:07
Airport Memphis International Airport (KMEM)

Arrival

Time N/A
Airport Miami International Airport (KMIA)
Time Latitude Longitude Altitude Speed Heading
2026-05-05 10:35 35.06107 -89.96375 338 ft 0 kts
2026-05-05 10:56 35.06092 -89.96375 333 ft 4 kts 352°
2026-05-05 10:56 35.06068 -89.96368 333 ft 4 kts 324°
2026-05-05 10:57 35.06051 -89.96347 333 ft 4 kts 292°
2026-05-05 10:57 35.06045 -89.96317 333 ft 4 kts 274°
2026-05-05 10:57 35.06044 -89.96302 334 ft 0 kts 272°
2026-05-05 11:00 35.06044 -89.96318 333 ft 5 kts 271°
2026-05-05 11:00 35.06046 -89.96382 334 ft 10 kts 272°
2026-05-05 11:01 35.06039 -89.96465 336 ft 10 kts 247°
2026-05-05 11:01 35.05980 -89.96528 334 ft 11 kts 214°
2026-05-05 11:01 35.05928 -89.96589 333 ft 9 kts 243°
2026-05-05 11:01 35.05920 -89.96683 334 ft 13 kts 271°
2026-05-05 11:02 35.05923 -89.96798 333 ft 13 kts 272°
2026-05-05 11:02 35.05926 -89.96903 338 ft 12 kts 272°
2026-05-05 11:02 35.05929 -89.97011 338 ft 14 kts 271°
2026-05-05 11:02 35.05931 -89.97129 337 ft 10 kts 268°
2026-05-05 11:03 35.05898 -89.97180 337 ft 8 kts 203°
2026-05-05 11:03 35.05827 -89.97190 335 ft 11 kts 183°
2026-05-05 11:03 35.05746 -89.97193 335 ft 12 kts 181°
2026-05-05 11:03 35.05663 -89.97213 334 ft 13 kts 212°
2026-05-05 11:04 35.05601 -89.97301 334 ft 15 kts 235°
2026-05-05 11:04 35.05547 -89.97399 333 ft 10 kts 236°
2026-05-05 11:04 35.05505 -89.97475 332 ft 10 kts 236°
2026-05-05 11:04 35.05455 -89.97549 330 ft 13 kts 232°
2026-05-05 11:05 35.05406 -89.97610 329 ft 7 kts 198°
2026-05-05 11:05 35.05349 -89.97615 329 ft 8 kts 181°
2026-05-05 11:05 35.05344 -89.97615 330 ft 0 kts 180°
2026-05-05 11:06 35.05320 -89.97615 330 ft 25 kts 179°
2026-05-05 11:06 35.04794 -89.97605 327 ft 125 kts 179°
2026-05-05 11:06 35.03665 -89.97589 594 ft 184 kts 179°
2026-05-05 11:07 35.02362 -89.97509 1689 ft 187 kts 183°
2026-05-05 11:07 35.01104 -89.97428 3055 ft 174 kts 183°
2026-05-05 11:07 34.99920 -89.97388 4237 ft 172 kts 186°
2026-05-05 11:07 34.98663 -89.97361 5084 ft 191 kts 181°
2026-05-05 11:08 34.97193 -89.97164 5165 ft 236 kts 175°
2026-05-05 11:08 34.95550 -89.96684 5237 ft 248 kts 166°
2026-05-05 11:08 34.93960 -89.95771 5173 ft 256 kts 154°
2026-05-05 11:08 34.92548 -89.94418 4965 ft 261 kts 141°
2026-05-05 11:09 34.91411 -89.92676 4869 ft 264 kts 127°
2026-05-05 11:09 34.90800 -89.90537 4996 ft 275 kts 101°
2026-05-05 11:09 34.90956 -89.88183 5352 ft 279 kts 81°
2026-05-05 11:09 34.91362 -89.85862 6223 ft 283 kts 83°
2026-05-05 11:10 34.91660 -89.83483 6956 ft 285 kts 86°
2026-05-05 11:10 34.91833 -89.81064 7650 ft 288 kts 90°
2026-05-05 11:10 34.91907 -89.78645 8331 ft 291 kts 92°
2026-05-05 11:10 34.91915 -89.76164 9000 ft 294 kts 93°
2026-05-05 11:11 34.91876 -89.73623 9659 ft 298 kts 94°
2026-05-05 11:11 34.91806 -89.71117 10193 ft 305 kts 94°
2026-05-05 11:11 34.91708 -89.68436 10308 ft 330 kts 95°
2026-05-05 11:11 34.91585 -89.65499 10429 ft 365 kts 94°
2026-05-05 11:12 34.91519 -89.62324 11068 ft 380 kts 92°
2026-05-05 11:12 34.91501 -89.59075 12039 ft 387 kts 91°
2026-05-05 11:12 34.91498 -89.55772 12987 ft 393 kts 91°
2026-05-05 11:12 34.91499 -89.52409 13889 ft 399 kts 91°
2026-05-05 11:13 34.91500 -89.49005 14705 ft 405 kts 91°
2026-05-05 11:13 34.91499 -89.45553 15505 ft 410 kts 90°
2026-05-05 11:13 34.91496 -89.42057 16292 ft 415 kts 90°
2026-05-05 11:13 34.91491 -89.38506 17066 ft 421 kts 90°
2026-05-05 11:14 34.91485 -89.34917 17820 ft 426 kts 90°
2026-05-05 11:14 34.91477 -89.31280 18499 ft 432 kts 90°
2026-05-05 11:14 34.91467 -89.27599 19102 ft 438 kts 90°
2026-05-05 11:14 34.91455 -89.23866 19696 ft 443 kts 91°
2026-05-05 11:15 34.91224 -89.20099 20272 ft 449 kts 98°
2026-05-05 11:15 34.90696 -89.16330 20795 ft 455 kts 102°
2026-05-05 11:15 34.90034 -89.12541 21343 ft 460 kts 103°
2026-05-05 11:15 34.89343 -89.08769 21903 ft 465 kts 103°
2026-05-05 11:16 34.88631 -89.04850 22497 ft 470 kts 103°
2026-05-05 11:16 34.88170 -89.02259 22882 ft 474 kts 103°
2026-05-05 11:16 34.87482 -88.98316 23471 ft 479 kts 103°
2026-05-05 11:16 34.86797 -88.94317 23982 ft 484 kts 102°
2026-05-05 11:17 34.86112 -88.90282 24509 ft 489 kts 102°
2026-05-05 11:17 34.85422 -88.86207 25010 ft 494 kts 102°
2026-05-05 11:17 34.84722 -88.82081 25553 ft 499 kts 102°
2026-05-05 11:17 34.84017 -88.77932 26074 ft 504 kts 102°
2026-05-05 11:18 34.83300 -88.73723 26606 ft 509 kts 102°
2026-05-05 11:18 34.82584 -88.69537 27116 ft 515 kts 101°
2026-05-05 11:18 34.81839 -88.65196 27647 ft 520 kts 101°
2026-05-05 11:18 34.81106 -88.60927 28134 ft 525 kts 101°
2026-05-05 11:19 34.80352 -88.56554 28646 ft 530 kts 101°
2026-05-05 11:19 34.79590 -88.52143 29107 ft 535 kts 101°
2026-05-05 11:19 34.78821 -88.47694 29586 ft 541 kts 101°
2026-05-05 11:19 34.78039 -88.43189 30045 ft 546 kts 101°
2026-05-05 11:20 34.77253 -88.38667 30484 ft 549 kts 101°
2026-05-05 11:20 34.76459 -88.34109 30953 ft 552 kts 100°
2026-05-05 11:20 34.75661 -88.29537 31418 ft 554 kts 100°
2026-05-05 11:20 34.74792 -88.24963 31897 ft 557 kts 103°
2026-05-05 11:21 34.73517 -88.20490 32373 ft 561 kts 114°
2026-05-05 11:21 34.71609 -88.16351 32787 ft 564 kts 127°
2026-05-05 11:21 34.69087 -88.12702 33182 ft 564 kts 140°
2026-05-05 11:21 34.66052 -88.09696 33538 ft 560 kts 152°
2026-05-05 11:22 34.62716 -88.07286 33837 ft 559 kts 158°
2026-05-05 11:22 34.59265 -88.05092 34131 ft 561 kts 160°
2026-05-05 11:22 34.55797 -88.02869 34466 ft 564 kts 158°
2026-05-05 11:22 34.52411 -88.00569 34805 ft 567 kts 156°
2026-05-05 11:23 34.49015 -87.98123 35177 ft 569 kts 155°
2026-05-05 11:23 34.45644 -87.95599 35514 ft 570 kts 154°
2026-05-05 11:23 34.42284 -87.93033 35877 ft 571 kts 154°
2026-05-05 11:23 34.38927 -87.90456 36234 ft 571 kts 154°
2026-05-05 11:24 34.35560 -87.87876 36583 ft 572 kts 155°
2026-05-05 11:24 34.32194 -87.85310 36914 ft 572 kts 155°
2026-05-05 11:24 34.28823 -87.82753 37239 ft 572 kts 155°
2026-05-05 11:24 34.25449 -87.80202 37578 ft 572 kts 155°
2026-05-05 11:25 34.22074 -87.77656 37897 ft 572 kts 155°
2026-05-05 11:25 34.18698 -87.75114 38215 ft 572 kts 155°
2026-05-05 11:25 34.15321 -87.72572 38514 ft 572 kts 156°
2026-05-05 11:25 34.11944 -87.70032 38783 ft 572 kts 156°
2026-05-05 11:26 34.08563 -87.67492 38907 ft 572 kts 155°
2026-05-05 11:26 34.01778 -87.62402 38954 ft 575 kts 155°
2026-05-05 11:27 33.95005 -87.57334 38973 ft 575 kts 156°
2026-05-05 11:27 33.88195 -87.52264 38996 ft 575 kts 156°
2026-05-05 11:28 33.81377 -87.47188 38993 ft 576 kts 156°
2026-05-05 11:28 33.74563 -87.42116 38985 ft 576 kts 155°
2026-05-05 11:29 33.67740 -87.37044 38972 ft 577 kts 155°
2026-05-05 11:29 33.60912 -87.31978 38959 ft 577 kts 155°
2026-05-05 11:30 33.54080 -87.26920 38942 ft 577 kts 155°
2026-05-05 11:30 33.47292 -87.21904 38963 ft 577 kts 155°
2026-05-05 11:31 33.40460 -87.16866 38983 ft 577 kts 155°
2026-05-05 11:31 33.33618 -87.11829 39005 ft 577 kts 155°
2026-05-05 11:32 33.26778 -87.06803 39012 ft 577 kts 155°
2026-05-05 11:32 33.19922 -87.01793 39013 ft 577 kts 155°
2026-05-05 11:33 33.13069 -86.96792 39003 ft 577 kts 155°
2026-05-05 11:33 33.06217 -86.91788 39009 ft 577 kts 155°
2026-05-05 11:34 32.99363 -86.86788 39003 ft 577 kts 155°
2026-05-05 11:34 32.92509 -86.81797 38992 ft 577 kts 155°
2026-05-05 11:35 32.85699 -86.76848 38984 ft 577 kts 155°
2026-05-05 11:35 32.78840 -86.71874 38980 ft 577 kts 155°
2026-05-05 11:36 32.71977 -86.66906 38982 ft 578 kts 155°
2026-05-05 11:36 32.65106 -86.61940 38984 ft 577 kts 155°
2026-05-05 11:37 32.58234 -86.56983 38993 ft 577 kts 155°
2026-05-05 11:37 32.51367 -86.52048 38994 ft 577 kts 155°
2026-05-05 11:38 32.44489 -86.47124 38998 ft 577 kts 155°
2026-05-05 11:38 32.37624 -86.42205 38997 ft 577 kts 155°
2026-05-05 11:39 32.30804 -86.37321 39023 ft 577 kts 155°
2026-05-05 11:39 32.23940 -86.32413 39027 ft 577 kts 155°
2026-05-05 11:40 32.17212 -86.27209 39032 ft 582 kts 147°
2026-05-05 11:40 32.11036 -86.20966 39020 ft 585 kts 141°
2026-05-05 11:41 32.05036 -86.14461 39030 ft 585 kts 141°
2026-05-05 11:41 31.98984 -86.08046 39039 ft 584 kts 142°
2026-05-05 11:42 31.92891 -86.01722 39046 ft 584 kts 142°
2026-05-05 11:42 31.86786 -85.95423 39039 ft 583 kts 142°
2026-05-05 11:43 31.80686 -85.89128 39043 ft 583 kts 142°
2026-05-05 11:43 31.74593 -85.82830 39034 ft 584 kts 141°
2026-05-05 11:44 31.68917 -85.76072 39039 ft 586 kts 134°
2026-05-05 11:44 31.63530 -85.68876 39040 ft 586 kts 133°
2026-05-05 11:45 31.58166 -85.61683 39045 ft 585 kts 133°
2026-05-05 11:45 31.52744 -85.54550 39042 ft 585 kts 134°
2026-05-05 11:46 31.47299 -85.47454 39079 ft 585 kts 134°
2026-05-05 11:46 31.41853 -85.40367 39088 ft 585 kts 134°
2026-05-05 11:47 31.36407 -85.33287 39088 ft 585 kts 134°
2026-05-05 11:47 31.30991 -85.26254 39084 ft 585 kts 134°
2026-05-05 11:48 31.22814 -85.15664 39074 ft 585 kts 134°
2026-05-05 11:48 31.17355 -85.08615 39070 ft 585 kts 134°
2026-05-05 11:49 31.11872 -85.01578 39065 ft 585 kts 134°
2026-05-05 11:49 31.06398 -84.94549 39066 ft 585 kts 134°
2026-05-05 11:50 31.00927 -84.87520 39069 ft 585 kts 134°
2026-05-05 11:50 30.95456 -84.80500 39077 ft 585 kts 134°
2026-05-05 11:51 30.90012 -84.73530 39078 ft 585 kts 134°
2026-05-05 11:51 30.84535 -84.66531 39077 ft 585 kts 134°
2026-05-05 11:52 30.79053 -84.59539 39070 ft 585 kts 134°
2026-05-05 11:52 30.73562 -84.52548 39068 ft 585 kts 134°
2026-05-05 11:53 30.68072 -84.45571 39071 ft 585 kts 134°
2026-05-05 11:53 30.62572 -84.38595 39077 ft 585 kts 134°
2026-05-05 11:54 30.57068 -84.31656 39059 ft 585 kts 134°